• MPC Preparation (Info)

  • MPEC 2015-K122: 2015 KP122

    The following Minor Planet Electronic Circular may be linked-to from your own Web pages, but must not otherwise be redistributed electronically.

    A form allowing access to any MPEC is at the bottom of this page.


    Read MPEC 2015-K121 Read MPEC 2015-K123


    M.P.E.C. 2015-K122                               Issued 2015 May 27, 14:28 UT
    
         The Minor Planet Electronic Circulars contain information on unusual
             minor planets and routine data on comets.  They are published
       on behalf of Commission 20 of the International Astronomical Union by the
              Minor Planet Center, Smithsonian Astrophysical Observatory,
                              Cambridge, MA 02138, U.S.A.
    
                 Prepared using the Tamkin Foundation Computer Network
    
                                  MPC@CFA.HARVARD.EDU
                URL https://www.minorplanetcenter.net/    ISSN 1523-6714
    
                                      2015 KP122
    
    Observations:
         K15KC2P  C2015 05 26.33700 15 35 23.24 -00 52 40.8          20.0 VqEK122G96
         K15KC2P  C2015 05 26.33727 15 35 23.60 -00 52 35.2          20.4 VqEK122G96
         K15KC2P  C2015 05 26.33807 15 35 24.78 -00 52 17.7          20.1 VqEK122G96
         K15KC2P* C2015 05 26.37201 15 36 13.20 -00 40 07.9          20.4 VqEK122G96
         K15KC2P  C2015 05 26.37239 15 36 13.81 -00 39 58.8          19.8 VqEK122G96
         K15KC2P  C2015 05 26.37316 15 36 15.06 -00 39 40.2          20.8 VqEK122G96
         K15KC2P  C2015 05 26.37354 15 36 15.48 -00 39 34.6          19.8 VqEK122G96
         K15KC2P  C2015 05 26.42428 15 37 28.65 -00 21 20.8          20.0 VqEK122G96
         K15KC2P  C2015 05 26.42489 15 37 29.54 -00 21 08.4          20.2 VqEK122G96
         K15KC2P  C2015 05 26.42674 15 37 32.13 -00 20 29.4          20.2 VqEK122G96
         K15KC2P  C2015 05 27.16485 15 56 23.35 +04 04 54.0                oEK122926
         K15KC2P  C2015 05 27.16787 15 56 27.72 +04 05 59.1                oEK122926
         K15KC2P  C2015 05 27.17089 15 56 32.12 +04 07 03.7                oEK122926
         K15KC2P  C2015 05 27.21458 15 57 35.41 +04 22 43.7          21.6 RoEK122926
         K15KC2P  C2015 05 27.21762 15 57 39.76 +04 23 48.9          20.7 RoEK122926
         K15KC2P  C2015 05 27.22065 15 57 44.14 +04 24 53.7          21.1 RoEK122926
         K15KC2P  C2015 05 27.22775 15 57 54.28 +04 27 23.1          20.6 VqEK122G96
         K15KC2P  C2015 05 27.22842 15 57 55.26 +04 27 37.8          21.1 VqEK122G96
         K15KC2P  C2015 05 27.22909 15 57 56.17 +04 27 50.6          20.2 VqEK122G96
         K15KC2P  C2015 05 27.22976 15 57 57.18 +04 28 07.0          20.5 VqEK122G96
         K15KC2P  C2015 05 27.23648 15 58 06.84 +04 30 30.1          20.2 VqEK122G96
         K15KC2P  C2015 05 27.23697 15 58 07.56 +04 30 40.9          21.2 VqEK122G96
         K15KC2P  C2015 05 27.23747 15 58 08.25 +04 30 51.5          20.4 VqEK122G96
         K15KC2P  C2015 05 27.23797 15 58 08.97 +04 31 02.9          21.1 VqEK122G96
         K15KC2P  C2015 05 27.23847 15 58 09.66 +04 31 12.6          20.9 VqEK122G96
         K15KC2P KC2015 05 27.24217315 58 10.24 +04 32 10.3          20.7 VoEK122H21
         K15KC2P KC2015 05 27.24728615 58 17.54 +04 34 00.3          20.7 VoEK122H21
         K15KC2P KC2015 05 27.25460615 58 28.19 +04 36 36.8          20.8 VoEK122H21
         K15KC2P  C2015 05 27.42351 16 02 35.82 +05 37 04.0          20.7 RoEK122926
         K15KC2P  C2015 05 27.42583 16 02 39.15 +05 37 53.9          21.1 RoEK122926
         K15KC2P  C2015 05 27.42816 16 02 42.56 +05 38 41.8          21.1 RoEK122926
    
    Observer details:
    926 Tenagra II Observatory.  Observers M. Schwartz, P. R. Holvorcem.  Measurer
        M. Schwartz.  0.41-m f/3.75 astrograph + CCD, 0.81-m f/7 Ritchey-Chretien
        + CCD.
    G96 Mt. Lemmon Survey.  Observer R. E. Hill.  Measurers E. J. Christensen,
        D. C. Fuls, A. R. Gibbs, A. D. Grauer, R. E. Hill, J. A. Johnson,
        R. A. Kowalski, S. M. Larson, R. G. Matheny, F. C. Shelly.  1.5-m
        reflector + CCD.
    H21 Astronomical Research Observatory, Westfield.  Observer R. Holmes.
        Measurers S. Foglia, L. Buzzi, T. Linder, T. Lister, T. Vorobjov.  0.61-m
        f/4.0 astrograph + CCD.
    
    Orbital elements:
    2015 KP122                                               Earth MOID = 0.0392 AU
    Epoch 2015 June 27.0 TT = JDT 2457200.5                 MPC
    M   5.99607              (2000.0)            P               Q
    n   0.24857286     Peri.   11.71655     -0.29856046     +0.93372734
    a   2.5051491      Node   241.18705     -0.89283803     -0.34637962
    e   0.5825520      Incl.   13.02821     -0.33719714     +0.09041249
    P   3.97           H   26.4           G   0.15           U   7
    Residuals in seconds of arc
    150526 G96  0.3+  0.4+    150527 926  0.1-  0.2+    150527 G96  0.2-  0.1-
    150526 G96  0.1-  0.2+    150527 926  0.1-  0.2-    150527 G96  0.2-  0.5+
    150526 G96  0.5+  0.5+    150527 926  0.4+  0.2+    150527 G96  0.6-  0.5-
    150526 G96  1.0-  0.6-    150527 926  0.0   0.1+    150527 H21  0.3+  0.2-
    150526 G96  0.0   0.3+    150527 926  0.2+  0.1-    150527 H21  0.6-  0.3+
    150526 G96 (2.2+  2.3+)   150527 G96  0.0   0.1+    150527 H21  1.0+  0.1+
    150526 G96  0.3+  0.3-    150527 G96  0.2+  0.4+    150527 926  0.3+  0.1-
    150526 G96  0.1-  0.1+    150527 G96  0.6-  1.2-    150527 926  0.3-  0.6+
    150526 G96  0.0   0.7-    150527 G96  0.1+  0.9+    150527 926  0.1-  0.8-
    150526 G96 (1.5-  1.6-)   150527 G96  0.0   0.3-
    150527 926  0.3+  0.1+    150527 G96  0.2+  0.0
    
    Ephemeris:
    2015 KP122               a,e,i = 2.51, 0.58, 13                  q = 1.0458
    Date    TT    R. A. (2000) Decl.     Delta      r     Elong.  Phase     V
    2015 04 27    11 26 19.0 -41 40 14   0.1886  1.1451   133.9    39.3    24.6
    ...
    2015 05 12    12 07 04.4 -38 05 55   0.09935 1.0824   134.8    41.4    23.2
    ...
    2015 05 20    13 24 47.3 -28 09 52   0.05777 1.0607   147.0    31.3    21.7
    ...
    2015 05 26    15 27 03.6 -02 51 10   0.04024 1.0506   159.2    20.0    20.5
    2015 05 27    15 52 04.1 +03 07 19   0.03995 1.0495   155.2    23.9    20.6
    2015 05 28    16 17 10.4 +08 59 37   0.04057 1.0485   149.7    29.2    20.8
    ...
    2015 06 03    18 22 37.2 +31 43 20   0.05909 1.0458   120.9    56.3    22.4
    ...
    2015 06 11    19 45 28.6 +39 17 55   0.09950 1.0509   108.4    66.4    23.8
    ...
    2015 06 26    20 36 19.6 +40 39 06   0.1806  1.0866   108.2    62.7    25.1
    
    A. U. Tomatic                (C) Copyright 2015 MPC           M.P.E.C. 2015-K122
    

    Read MPEC 2015-K121 Read MPEC 2015-K123


    MPEC number:

    Enter an MPEC number in one of the following forms:

    • 1997-B01 (the full form)
    • J97B01 (the packed version of the full form)
    • B01 (the abbreviated form)